Time,TemperatureF,DewpointF,PressureIn,WindDirection,WindDirectionDegrees,WindSpeedMPH,WindSpeedGustMPH,Humidity,HourlyPrecipIn,Conditions,Clouds,dailyrainin,SoftwareType,DateUTC
2013-11-09 00:01:00,35.9,28.7,30.11,WNW,285,0.0,0.0,75,0.00,CLR,,0.00,WeatherDisplay:10.37,2013-11-09 05:01:00,
2013-11-09 00:02:00,35.9,29.1,30.11,WNW,285,0.0,0.0,76,0.00,CLR,,0.00,WeatherDisplay:10.37,2013-11-09 05:02:00,
2013-11-09 00:07:00,35.8,29.6,30.11,WNW,285,0.0,0.0,78,0.00,CLR,,0.00,WeatherDisplay:10.37,2013-11-09 05:07:00,
2013-11-09 00:12:00,35.8,29.9,30.11,WNW,285,0.0,0.0,79,0.00,CLR,,0.00,WeatherDisplay:10.37,2013-11-09 05:12:00,
2013-11-09 00:17:00,35.8,30.2,30.11,WNW,285,0.0,0.0,80,0.00,CLR,,0.00,WeatherDisplay:10.37,2013-11-09 05:17:00,
2013-11-09 00:22:00,35.8,30.5,30.11,WNW,285,0.2,1.0,81,0.00,CLR,,0.00,WeatherDisplay:10.37,2013-11-09 05:22:00,
2013-11-09 00:27:00,35.8,30.5,30.11,WNW,285,0.0,0.0,81,0.00,CLR,,0.00,WeatherDisplay:10.37,2013-11-09 05:27:00,
2013-11-09 00:32:00,35.8,29.9,30.11,WNW,285,0.0,0.0,79,0.00,CLR,,0.00,WeatherDisplay:10.37,2013-11-09 05:32:00,
2013-11-09 00:37:00,35.8,29.6,30.11,WNW,285,0.0,1.1,78,0.00,CLR,,0.00,WeatherDisplay:10.37,2013-11-09 05:37:00,
2013-11-09 00:42:00,35.8,29.3,30.11,WNW,285,0.0,0.0,77,0.00,CLR,,0.00,WeatherDisplay:10.37,2013-11-09 05:42:00,
2013-11-09 00:47:00,35.8,29.0,30.11,WNW,285,0.1,1.1,76,0.00,CLR,,0.00,WeatherDisplay:10.37,2013-11-09 05:47:00,
2013-11-09 00:52:00,35.8,29.3,30.11,WNW,285,0.0,0.0,77,0.00,CLR,,0.00,WeatherDisplay:10.37,2013-11-09 05:52:00,
2013-11-09 00:57:00,35.8,29.3,30.11,WNW,285,0.0,0.0,77,0.00,CLR,,0.00,WeatherDisplay:10.37,2013-11-09 05:57:00,
2013-11-09 01:02:00,35.9,29.4,30.11,WNW,285,0.2,1.1,77,0.00,CLR,,0.00,WeatherDisplay:10.37,2013-11-09 06:02:00,
2013-11-09 01:07:00,35.9,29.1,30.11,WNW,285,0.0,0.0,76,0.00,CLR,,0.00,WeatherDisplay:10.37,2013-11-09 06:07:00,
2013-11-09 01:12:00,36.0,29.5,30.12,WNW,285,0.0,0.0,77,0.00,CLR,,0.00,WeatherDisplay:10.37,2013-11-09 06:12:00,
2013-11-09 01:17:00,36.0,28.5,30.12,WNW,285,0.0,0.0,74,0.00,CLR,,0.00,WeatherDisplay:10.37,2013-11-09 06:17:00,
2013-11-09 01:22:00,36.2,28.4,30.12,WNW,285,0.0,0.0,73,0.00,CLR,,0.00,WeatherDisplay:10.37,2013-11-09 06:22:00,
2013-11-09 01:27:00,36.2,28.4,30.12,WNW,285,1.3,3.5,73,0.00,CLR,,0.00,WeatherDisplay:10.37,2013-11-09 06:27:00,
2013-11-09 01:32:00,36.3,28.1,30.12,WNW,285,0.1,1.1,72,0.00,CLR,,0.00,WeatherDisplay:10.37,2013-11-09 06:32:00,
2013-11-09 01:37:00,36.5,28.3,30.13,WNW,285,0.0,0.0,72,0.00,CLR,,0.00,WeatherDisplay:10.37,2013-11-09 06:37:00,
2013-11-09 01:42:00,36.6,28.8,30.13,WNW,285,0.0,0.0,73,0.00,CLR,,0.00,WeatherDisplay:10.37,2013-11-09 06:42:00,
2013-11-09 01:47:00,36.8,29.0,30.13,WNW,285,0.0,0.0,73,0.00,CLR,,0.00,WeatherDisplay:10.37,2013-11-09 06:47:00,
2013-11-09 01:52:00,36.8,29.0,30.13,WNW,285,0.0,0.0,73,0.00,CLR,,0.00,WeatherDisplay:10.37,2013-11-09 06:52:00,
2013-11-09 01:57:00,36.6,29.1,30.13,WNW,285,0.0,1.1,74,0.00,CLR,,0.00,WeatherDisplay:10.37,2013-11-09 06:57:00,
2013-11-09 02:02:00,36.6,29.4,30.14,SSW,196,0.0,1.1,75,0.00,CLR,,0.00,WeatherDisplay:10.37,2013-11-09 07:02:00,
2013-11-09 02:07:00,36.8,29.0,30.14,SSW,196,0.2,1.0,73,0.00,CLR,,0.00,WeatherDisplay:10.37,2013-11-09 07:07:00,
2013-11-09 02:12:00,36.9,29.1,30.14,SSW,197,1.1,3.5,73,0.00,CLR,,0.00,WeatherDisplay:10.37,2013-11-09 07:12:00,
2013-11-09 02:17:00,36.9,29.1,30.14,SSW,197,0.0,1.0,73,0.00,CLR,,0.00,WeatherDisplay:10.37,2013-11-09 07:17:00,
2013-11-09 02:22:00,36.9,29.4,30.14,SSW,197,0.0,0.0,74,0.00,CLR,,0.00,WeatherDisplay:10.37,2013-11-09 07:22:00,
2013-11-09 02:27:00,37.0,29.1,30.14,SSW,197,0.2,4.0,73,0.00,CLR,,0.00,WeatherDisplay:10.37,2013-11-09 07:27:00,
2013-11-09 02:32:00,37.2,28.7,30.14,SSW,197,0.4,1.1,71,0.00,CLR,,0.00,WeatherDisplay:10.37,2013-11-09 07:32:00,
2013-11-09 02:37:00,37.3,28.4,30.14,West,280,0.5,3.5,70,0.00,CLR,,0.00,WeatherDisplay:10.37,2013-11-09 07:37:00,
2013-11-09 02:42:00,37.5,28.6,30.14,NW,310,1.2,6.0,70,0.00,CLR,,0.00,WeatherDisplay:10.37,2013-11-09 07:42:00,
2013-11-09 02:47:00,37.5,28.2,30.14,West,280,0.0,0.0,69,0.00,CLR,,0.00,WeatherDisplay:10.37,2013-11-09 07:47:00,
2013-11-09 02:52:00,37.6,28.3,30.15,West,280,0.0,2.3,69,0.00,CLR,,0.00,WeatherDisplay:10.37,2013-11-09 07:52:00,
2013-11-09 02:57:00,37.6,28.3,30.15,West,280,0.2,1.1,69,0.00,CLR,,0.00,WeatherDisplay:10.37,2013-11-09 07:57:00,
2013-11-09 03:02:00,37.6,28.3,30.15,West,280,0.0,0.0,69,0.00,CLR,,0.00,WeatherDisplay:10.37,2013-11-09 08:02:00,
2013-11-09 03:07:00,37.6,28.7,30.15,West,280,0.2,1.1,70,0.00,CLR,,0.00,WeatherDisplay:10.37,2013-11-09 08:07:00,
2013-11-09 03:12:00,37.6,28.3,30.15,WNW,283,0.2,0.0,69,0.00,CLR,,0.00,WeatherDisplay:10.37,2013-11-09 08:12:00,
2013-11-09 03:17:00,37.6,28.7,30.15,WNW,283,0.0,0.0,70,0.00,CLR,,0.00,WeatherDisplay:10.37,2013-11-09 08:17:00,
2013-11-09 03:22:00,37.5,28.9,30.15,WNW,283,0.0,0.0,71,0.00,CLR,,0.00,WeatherDisplay:10.37,2013-11-09 08:22:00,
2013-11-09 03:27:00,37.5,28.9,30.15,WNW,283,0.0,0.0,71,0.00,CLR,,0.00,WeatherDisplay:10.37,2013-11-09 08:27:00,
2013-11-09 03:32:00,37.2,29.0,30.15,WNW,283,0.0,0.0,72,0.00,CLR,,0.00,WeatherDisplay:10.37,2013-11-09 08:32:00,
2013-11-09 03:37:00,37.0,28.8,30.15,WNW,283,0.0,0.0,72,0.00,CLR,,0.00,WeatherDisplay:10.37,2013-11-09 08:37:00,
2013-11-09 03:42:00,36.9,29.1,30.15,WNW,283,0.0,0.0,73,0.00,CLR,,0.00,WeatherDisplay:10.37,2013-11-09 08:42:00,
2013-11-09 03:47:00,36.6,28.8,30.15,WNW,283,0.0,0.0,73,0.00,CLR,,0.00,WeatherDisplay:10.37,2013-11-09 08:47:00,
2013-11-09 03:52:00,36.5,29.0,30.15,WNW,283,0.0,0.0,74,0.00,CLR,,0.00,WeatherDisplay:10.37,2013-11-09 08:52:00,
2013-11-09 03:57:00,36.5,29.3,30.15,WNW,283,0.0,0.0,75,0.00,CLR,,0.00,WeatherDisplay:10.37,2013-11-09 08:57:00,
2013-11-09 04:02:00,36.3,29.5,30.16,WNW,283,0.0,0.0,76,0.00,CLR,,0.00,WeatherDisplay:10.37,2013-11-09 09:02:00,
2013-11-09 04:07:00,36.3,29.8,30.16,WNW,283,0.0,0.0,77,0.00,CLR,,0.00,WeatherDisplay:10.37,2013-11-09 09:07:00,
2013-11-09 04:12:00,36.3,29.5,30.16,WNW,283,0.0,0.0,76,0.00,CLR,,0.00,WeatherDisplay:10.37,2013-11-09 09:12:00,
2013-11-09 04:17:00,36.3,29.1,30.16,WNW,283,0.0,0.0,75,0.00,CLR,,0.00,WeatherDisplay:10.37,2013-11-09 09:17:00,
2013-11-09 04:22:00,36.3,29.1,30.16,WNW,283,0.0,0.0,75,0.00,CLR,,0.00,WeatherDisplay:10.37,2013-11-09 09:22:00,
2013-11-09 04:27:00,36.2,29.4,30.16,WNW,283,0.0,0.0,76,0.00,CLR,,0.00,WeatherDisplay:10.37,2013-11-09 09:27:00,
2013-11-09 04:32:00,36.0,28.8,30.16,WNW,283,0.0,0.0,75,0.00,CLR,,0.00,WeatherDisplay:10.37,2013-11-09 09:32:00,
2013-11-09 04:37:00,35.9,28.7,30.16,WNW,283,0.0,0.0,75,0.00,CLR,,0.00,WeatherDisplay:10.37,2013-11-09 09:37:00,
2013-11-09 04:42:00,35.8,29.0,30.16,WNW,283,0.0,0.0,76,0.00,CLR,,0.00,WeatherDisplay:10.37,2013-11-09 09:42:00,
2013-11-09 04:47:00,35.6,28.8,30.17,WNW,283,0.0,0.0,76,0.00,CLR,,0.00,WeatherDisplay:10.37,2013-11-09 09:47:00,
2013-11-09 04:52:00,35.6,29.1,30.16,WNW,283,0.0,0.0,77,0.00,CLR,,0.00,WeatherDisplay:10.37,2013-11-09 09:52:00,
2013-11-09 04:57:00,35.5,29.0,30.17,WNW,283,0.0,0.0,77,0.00,CLR,,0.00,WeatherDisplay:10.37,2013-11-09 09:57:00,
2013-11-09 05:02:00,35.2,28.7,30.17,WNW,283,0.0,0.0,77,0.00,CLR,,0.00,WeatherDisplay:10.37,2013-11-09 10:02:00,
2013-11-09 05:07:00,35.0,28.8,30.17,WNW,283,0.0,0.0,78,0.00,CLR,,0.00,WeatherDisplay:10.37,2013-11-09 10:07:00,
2013-11-09 05:12:00,34.7,28.5,30.17,WNW,283,0.0,0.0,78,0.00,CLR,,0.00,WeatherDisplay:10.37,2013-11-09 10:12:00,
2013-11-09 05:17:00,34.3,28.2,30.18,WNW,283,0.0,0.0,78,0.00,CLR,,0.00,WeatherDisplay:10.37,2013-11-09 10:17:00,
2013-11-09 05:22:00,33.8,28.3,30.18,WNW,283,0.0,0.0,80,0.00,CLR,,0.00,WeatherDisplay:10.37,2013-11-09 10:22:00,
2013-11-09 05:27:00,33.5,28.6,30.18,WNW,283,0.0,0.0,82,0.00,CLR,,0.00,WeatherDisplay:10.37,2013-11-09 10:27:00,
2013-11-09 05:32:00,33.2,28.3,30.18,WNW,283,0.0,0.0,82,0.00,CLR,,0.00,WeatherDisplay:10.37,2013-11-09 10:32:00,
2013-11-09 05:37:00,32.9,28.0,30.18,WNW,283,0.0,0.0,82,0.00,CLR,,0.00,WeatherDisplay:10.37,2013-11-09 10:37:00,
2013-11-09 05:42:00,32.8,27.9,30.18,WNW,283,0.0,0.0,82,0.00,CLR,,0.00,WeatherDisplay:10.37,2013-11-09 10:42:00,
2013-11-09 05:47:00,32.4,27.8,30.18,WNW,283,0.0,0.0,83,0.00,CLR,,0.00,WeatherDisplay:10.37,2013-11-09 10:47:00,
2013-11-09 05:52:00,32.1,27.8,30.18,WNW,283,0.0,0.0,84,0.00,CLR,,0.00,WeatherDisplay:10.37,2013-11-09 10:52:00,
2013-11-09 05:57:00,31.8,27.8,30.18,WNW,283,0.0,0.0,85,0.00,CLR,,0.00,WeatherDisplay:10.37,2013-11-09 10:57:00,
2013-11-09 06:02:00,31.6,27.9,30.18,WNW,283,0.0,0.0,86,0.00,CLR,,0.00,WeatherDisplay:10.37,2013-11-09 11:02:00,
2013-11-09 06:07:00,31.3,27.6,30.18,WNW,283,0.0,0.0,86,0.00,CLR,,0.00,WeatherDisplay:10.37,2013-11-09 11:07:00,
2013-11-09 06:12:00,31.3,27.6,30.18,WNW,283,0.0,0.0,86,0.00,CLR,,0.00,WeatherDisplay:10.37,2013-11-09 11:12:00,
2013-11-09 06:17:00,31.2,27.8,30.18,WNW,283,0.0,0.0,87,0.00,CLR,,0.00,WeatherDisplay:10.37,2013-11-09 11:17:00,
2013-11-09 06:22:00,30.7,27.3,30.18,WNW,283,0.0,0.0,87,0.00,CLR,,0.00,WeatherDisplay:10.37,2013-11-09 11:22:00,
2013-11-09 06:27:00,30.1,26.7,30.18,WNW,283,0.0,0.0,87,0.00,CLR,,0.00,WeatherDisplay:10.37,2013-11-09 11:27:00,
2013-11-09 06:32:00,29.8,26.7,30.18,WNW,283,0.0,0.0,88,0.00,CLR,,0.00,WeatherDisplay:10.37,2013-11-09 11:32:00,
2013-11-09 06:37:00,29.8,27.0,30.18,WNW,283,0.0,0.0,89,0.00,CLR,,0.00,WeatherDisplay:10.37,2013-11-09 11:37:00,
2013-11-09 06:42:00,29.8,27.2,30.18,WNW,283,0.0,0.0,90,0.00,CLR,,0.00,WeatherDisplay:10.37,2013-11-09 11:42:00,
2013-11-09 06:47:00,30.0,27.4,30.19,WNW,283,0.0,0.0,90,0.00,CLR,,0.00,WeatherDisplay:10.37,2013-11-09 11:47:00,
2013-11-09 06:52:00,30.0,27.4,30.19,WNW,283,0.0,0.0,90,0.00,CLR,,0.00,WeatherDisplay:10.37,2013-11-09 11:52:00,
2013-11-09 06:57:00,30.0,27.4,30.19,WNW,283,0.0,0.0,90,0.00,CLR,,0.00,WeatherDisplay:10.37,2013-11-09 11:57:00,
2013-11-09 07:02:00,30.1,27.5,30.19,WNW,283,0.0,0.0,90,0.00,CLR,,0.00,WeatherDisplay:10.37,2013-11-09 12:02:00,
2013-11-09 07:07:00,30.1,27.5,30.19,WNW,283,0.0,0.0,90,0.00,CLR,,0.00,WeatherDisplay:10.37,2013-11-09 12:07:00,
2013-11-09 07:12:00,30.1,27.5,30.20,WNW,283,0.0,0.0,90,0.00,CLR,,0.00,WeatherDisplay:10.37,2013-11-09 12:12:00,
2013-11-09 07:17:00,30.1,27.5,30.20,WNW,283,0.0,0.0,90,0.00,CLR,,0.00,WeatherDisplay:10.37,2013-11-09 12:17:00,
2013-11-09 07:22:00,30.3,27.7,30.20,WNW,283,0.0,0.0,90,0.00,CLR,,0.00,WeatherDisplay:10.37,2013-11-09 12:22:00,
2013-11-09 07:27:00,30.3,28.0,30.20,WNW,283,0.0,0.0,91,0.00,CLR,,0.00,WeatherDisplay:10.37,2013-11-09 12:27:00,
2013-11-09 07:32:00,30.4,28.1,30.20,WNW,283,0.0,0.0,91,0.00,CLR,,0.00,WeatherDisplay:10.37,2013-11-09 12:32:00,
2013-11-09 07:37:00,30.6,28.3,30.20,WNW,283,0.0,0.0,91,0.00,CLR,,0.00,WeatherDisplay:10.37,2013-11-09 12:37:00,
2013-11-09 07:42:00,30.9,28.6,30.20,WNW,283,0.0,0.0,91,0.00,CLR,,0.00,WeatherDisplay:10.37,2013-11-09 12:42:00,
2013-11-09 07:47:00,31.3,28.7,30.19,WNW,283,0.0,0.0,90,0.00,CLR,,0.00,WeatherDisplay:10.37,2013-11-09 12:47:00,
2013-11-09 07:52:00,31.9,29.3,30.19,WNW,283,0.0,0.0,90,0.00,CLR,,0.00,WeatherDisplay:10.37,2013-11-09 12:52:00,
2013-11-09 07:57:00,32.5,29.6,30.19,WNW,283,0.0,0.0,89,0.00,CLR,,0.00,WeatherDisplay:10.37,2013-11-09 12:57:00,
2013-11-09 08:02:00,33.1,29.7,30.19,NNE,13,1.7,2.3,87,0.00,CLR,,0.00,WeatherDisplay:10.37,2013-11-09 13:02:00,
2013-11-09 08:07:00,34.0,29.7,30.20,ENE,67,2.5,3.5,84,0.00,CLR,,0.00,WeatherDisplay:10.37,2013-11-09 13:07:00,
2013-11-09 08:12:00,34.4,29.5,30.20,ENE,67,0.0,0.0,82,0.00,CLR,,0.00,WeatherDisplay:10.37,2013-11-09 13:12:00,
2013-11-09 08:17:00,34.7,29.8,30.20,ENE,67,0.0,0.0,82,0.00,CLR,,0.00,WeatherDisplay:10.37,2013-11-09 13:17:00,
2013-11-09 08:22:00,34.9,30.0,30.20,ENE,67,0.0,0.0,82,0.00,CLR,,0.00,WeatherDisplay:10.37,2013-11-09 13:22:00,
2013-11-09 08:27:00,35.0,30.1,30.20,ENE,67,0.0,0.0,82,0.00,CLR,,0.00,WeatherDisplay:10.37,2013-11-09 13:27:00,
2013-11-09 08:32:00,35.2,30.3,30.21,ENE,67,0.0,0.0,82,0.00,CLR,,0.00,WeatherDisplay:10.37,2013-11-09 13:32:00,
2013-11-09 08:37:00,35.5,30.5,30.20,ENE,67,0.0,0.0,82,0.00,CLR,,0.00,WeatherDisplay:10.37,2013-11-09 13:37:00,
2013-11-09 08:42:00,35.8,31.1,30.20,ENE,67,0.0,0.0,83,0.00,CLR,,0.00,WeatherDisplay:10.37,2013-11-09 13:42:00,
2013-11-09 08:47:00,36.0,30.7,30.20,ENE,67,0.0,0.0,81,0.00,CLR,,0.00,WeatherDisplay:10.37,2013-11-09 13:47:00,
2013-11-09 08:52:00,36.5,31.2,30.20,ENE,67,0.0,0.0,81,0.00,CLR,,0.00,WeatherDisplay:10.37,2013-11-09 13:52:00,
2013-11-09 08:57:00,36.8,31.2,30.20,ENE,67,0.0,0.0,80,0.00,CLR,,0.00,WeatherDisplay:10.37,2013-11-09 13:57:00,
2013-11-09 09:02:00,37.0,31.1,30.19,ENE,67,0.0,0.0,79,0.00,CLR,,0.00,WeatherDisplay:10.37,2013-11-09 14:02:00,
2013-11-09 09:07:00,37.3,31.1,30.19,ENE,67,0.0,0.0,78,0.00,CLR,,0.00,WeatherDisplay:10.37,2013-11-09 14:07:00,
2013-11-09 09:12:00,37.8,31.2,30.18,ENE,67,0.0,0.0,77,0.00,CLR,,0.00,WeatherDisplay:10.37,2013-11-09 14:12:00,
2013-11-09 09:17:00,38.0,31.4,30.18,ENE,67,0.0,0.0,77,0.00,CLR,,0.00,WeatherDisplay:10.37,2013-11-09 14:17:00,
2013-11-09 09:22:00,38.3,30.7,30.18,NW,311,0.1,2.3,74,0.00,CLR,,0.00,WeatherDisplay:10.37,2013-11-09 14:22:00,
2013-11-09 09:27:00,38.6,30.7,30.18,SSW,201,0.0,1.1,73,0.00,CLR,,0.00,WeatherDisplay:10.37,2013-11-09 14:27:00,
2013-11-09 09:32:00,39.1,31.2,30.19,SW,214,1.4,5.0,73,0.00,CLR,,0.00,WeatherDisplay:10.37,2013-11-09 14:32:00,
2013-11-09 09:37:00,39.3,30.7,30.19,SSW,211,0.1,2.3,71,0.00,CLR,,0.00,WeatherDisplay:10.37,2013-11-09 14:37:00,
2013-11-09 09:42:00,39.6,31.0,30.19,West,275,1.8,2.3,71,0.00,CLR,,0.00,WeatherDisplay:10.37,2013-11-09 14:42:00,
2013-11-09 09:47:00,39.6,31.0,30.19,West,277,1.5,3.5,71,0.00,CLR,,0.00,WeatherDisplay:10.37,2013-11-09 14:47:00,
2013-11-09 09:52:00,39.6,30.6,30.19,SW,216,2.0,3.5,70,0.00,CLR,,0.00,WeatherDisplay:10.37,2013-11-09 14:52:00,
2013-11-09 09:57:00,39.6,30.6,30.19,SW,221,0.9,2.3,70,0.00,CLR,,0.00,WeatherDisplay:10.37,2013-11-09 14:57:00,
2013-11-09 10:02:00,39.6,30.6,30.19,SW,232,0.3,2.3,70,0.00,CLR,,0.00,WeatherDisplay:10.37,2013-11-09 15:02:00,
2013-11-09 10:07:00,39.6,29.9,30.19,SW,233,2.8,5.8,68,0.00,CLR,,0.00,WeatherDisplay:10.37,2013-11-09 15:07:00,
2013-11-09 10:12:00,39.5,29.8,30.19,West,267,2.4,3.5,68,0.00,CLR,,0.00,WeatherDisplay:10.37,2013-11-09 15:12:00,
2013-11-09 10:17:00,39.6,31.0,30.19,West,259,0.6,0.0,71,0.00,CLR,,0.00,WeatherDisplay:10.37,2013-11-09 15:17:00,
2013-11-09 10:22:00,39.8,30.5,30.18,SW,220,0.8,3.5,69,0.00,CLR,,0.00,WeatherDisplay:10.37,2013-11-09 15:22:00,
2013-11-09 10:27:00,40.2,31.2,30.18,SW,218,1.4,3.5,70,0.00,CLR,,0.00,WeatherDisplay:10.37,2013-11-09 15:27:00,
2013-11-09 10:32:00,40.2,30.1,30.18,SW,222,1.3,3.5,67,0.00,CLR,,0.00,WeatherDisplay:10.37,2013-11-09 15:32:00,
2013-11-09 10:37:00,40.2,30.1,30.18,WSW,239,0.8,3.5,67,0.00,CLR,,0.00,WeatherDisplay:10.37,2013-11-09 15:37:00,
2013-11-09 10:42:00,40.2,30.5,30.18,West,275,0.7,3.5,68,0.00,CLR,,0.00,WeatherDisplay:10.37,2013-11-09 15:42:00,
2013-11-09 10:47:00,40.2,30.1,30.18,SW,229,0.8,1.1,67,0.00,CLR,,0.00,WeatherDisplay:10.37,2013-11-09 15:47:00,
2013-11-09 10:52:00,40.2,30.1,30.18,NW,308,0.8,5.0,67,0.00,CLR,,0.00,WeatherDisplay:10.37,2013-11-09 15:52:00,
2013-11-09 10:58:00,40.2,30.1,30.18,WSW,237,0.5,2.3,67,0.00,CLR,,0.00,WeatherDisplay:10.37,2013-11-09 15:58:00,
2013-11-09 11:02:00,40.3,29.8,30.18,WNW,292,0.7,3.5,66,0.00,CLR,,0.00,WeatherDisplay:10.37,2013-11-09 16:02:00,
2013-11-09 11:08:00,40.5,30.0,30.18,SW,234,2.7,6.9,66,0.00,CLR,,0.00,WeatherDisplay:10.37,2013-11-09 16:08:00,
2013-11-09 11:13:00,40.5,29.7,30.17,WSW,250,0.8,3.5,65,0.00,CLR,,0.00,WeatherDisplay:10.37,2013-11-09 16:13:00,
2013-11-09 11:18:00,40.6,30.5,30.17,SSW,198,0.9,4.0,67,0.00,CLR,,0.00,WeatherDisplay:10.37,2013-11-09 16:18:00,
2013-11-09 11:23:00,40.8,29.9,30.17,SSW,194,0.8,2.3,65,0.00,CLR,,0.00,WeatherDisplay:10.37,2013-11-09 16:23:00,
2013-11-09 11:28:00,40.8,29.9,30.17,WSW,244,0.7,2.3,65,0.00,CLR,,0.00,WeatherDisplay:10.37,2013-11-09 16:28:00,
2013-11-09 11:33:00,40.8,29.2,30.17,SW,222,5.5,10.4,63,0.00,CLR,,0.00,WeatherDisplay:10.37,2013-11-09 16:33:00,
2013-11-09 11:38:00,41.1,30.2,30.16,WSW,245,1.1,3.0,65,0.00,CLR,,0.00,WeatherDisplay:10.37,2013-11-09 16:38:00,
2013-11-09 11:43:00,41.2,29.5,30.16,WSW,256,0.2,2.3,63,0.00,CLR,,0.00,WeatherDisplay:10.37,2013-11-09 16:43:00,
2013-11-09 11:48:00,41.3,28.9,30.16,NW,317,0.4,2.3,61,0.00,CLR,,0.00,WeatherDisplay:10.37,2013-11-09 16:48:00,
2013-11-09 11:53:00,41.5,29.0,30.15,WSW,254,0.6,2.3,61,0.00,CLR,,0.00,WeatherDisplay:10.37,2013-11-09 16:53:00,
2013-11-09 11:58:00,41.5,29.0,30.15,WSW,242,1.7,3.5,61,0.00,CLR,,0.00,WeatherDisplay:10.37,2013-11-09 16:58:00,
2013-11-09 12:03:00,41.5,28.6,30.14,WSW,254,0.5,4.6,60,0.00,CLR,,0.00,WeatherDisplay:10.37,2013-11-09 17:03:00,
2013-11-09 12:08:00,41.6,29.5,30.14,SW,233,0.6,3.5,62,0.00,CLR,,0.00,WeatherDisplay:10.37,2013-11-09 17:08:00,
2013-11-09 12:13:00,42.1,30.0,30.14,WNW,294,1.6,3.5,62,0.00,CLR,,0.00,WeatherDisplay:10.37,2013-11-09 17:13:00,
2013-11-09 12:18:00,42.8,29.0,30.13,West,271,2.9,5.8,58,0.00,CLR,,0.00,WeatherDisplay:10.37,2013-11-09 17:18:00,
2013-11-09 12:23:00,43.2,29.0,30.13,SW,231,1.4,2.3,57,0.00,CLR,,0.00,WeatherDisplay:10.37,2013-11-09 17:23:00,
2013-11-09 12:28:00,43.2,29.0,30.13,SW,231,2.0,5.8,57,0.00,CLR,,0.00,WeatherDisplay:10.37,2013-11-09 17:28:00,
2013-11-09 12:33:00,43.2,29.8,30.13,WSW,237,0.6,3.5,59,0.00,CLR,,0.00,WeatherDisplay:10.37,2013-11-09 17:33:00,
2013-11-09 12:38:00,43.1,28.9,30.13,WSW,237,3.2,3.5,57,0.00,CLR,,0.00,WeatherDisplay:10.37,2013-11-09 17:38:00,
2013-11-09 12:43:00,43.1,30.6,30.12,West,265,0.8,3.5,61,0.00,CLR,,0.00,WeatherDisplay:10.37,2013-11-09 17:43:00,
2013-11-09 12:48:00,43.3,29.5,30.12,WSW,255,0.3,2.3,58,0.00,CLR,,0.00,WeatherDisplay:10.37,2013-11-09 17:48:00,
2013-11-09 12:53:00,43.6,30.2,30.12,WSW,246,0.5,3.5,59,0.00,CLR,,0.00,WeatherDisplay:10.37,2013-11-09 17:53:00,
2013-11-09 12:58:00,43.8,30.4,30.12,West,265,0.8,1.1,59,0.00,CLR,,0.00,WeatherDisplay:10.37,2013-11-09 17:58:00,
2013-11-09 13:03:00,43.5,29.3,30.12,SW,236,1.1,2.3,57,0.00,CLR,,0.00,WeatherDisplay:10.37,2013-11-09 18:03:00,
2013-11-09 13:08:00,43.2,29.8,30.11,SW,235,3.6,5.8,59,0.00,CLR,,0.00,WeatherDisplay:10.37,2013-11-09 18:08:00,
2013-11-09 13:13:00,43.2,29.4,30.11,SW,227,0.8,3.5,58,0.00,CLR,,0.00,WeatherDisplay:10.37,2013-11-09 18:13:00,
2013-11-09 13:18:00,43.3,29.9,30.11,WNW,282,0.4,1.1,59,0.00,CLR,,0.00,WeatherDisplay:10.37,2013-11-09 18:18:00,
2013-11-09 13:23:00,43.6,29.8,30.11,WNW,303,2.2,3.5,58,0.00,CLR,,0.00,WeatherDisplay:10.37,2013-11-09 18:23:00,
2013-11-09 13:28:00,43.8,29.1,30.11,WSW,238,1.6,3.5,56,0.00,CLR,,0.00,WeatherDisplay:10.37,2013-11-09 18:28:00,
2013-11-09 13:33:00,43.9,28.8,30.11,WSW,237,1.4,3.5,55,0.00,CLR,,0.00,WeatherDisplay:10.37,2013-11-09 18:33:00,
2013-11-09 13:38:00,44.6,29.0,30.10,SW,219,3.4,5.0,54,0.00,CLR,,0.00,WeatherDisplay:10.37,2013-11-09 18:38:00,
2013-11-09 13:43:00,45.2,27.6,30.10,SW,214,2.4,4.0,50,0.00,CLR,,0.00,WeatherDisplay:10.37,2013-11-09 18:43:00,
2013-11-09 13:48:00,45.7,28.6,30.09,WSW,248,0.2,4.6,51,0.00,CLR,,0.00,WeatherDisplay:10.37,2013-11-09 18:48:00,
2013-11-09 13:53:00,46.2,29.1,30.08,West,275,0.2,1.1,51,0.00,CLR,,0.00,WeatherDisplay:10.37,2013-11-09 18:53:00,
2013-11-09 13:58:00,46.8,28.1,30.08,SSW,198,1.8,4.0,48,0.00,CLR,,0.00,WeatherDisplay:10.37,2013-11-09 18:58:00,
2013-11-09 14:03:00,47.0,29.3,30.08,SW,235,3.9,6.9,50,0.00,CLR,,0.00,WeatherDisplay:10.37,2013-11-09 19:03:00,
2013-11-09 14:08:00,47.1,26.8,30.08,South,173,1.1,5.8,45,0.00,CLR,,0.00,WeatherDisplay:10.37,2013-11-09 19:08:00,
2013-11-09 14:13:00,47.1,26.8,30.07,SW,228,1.1,4.6,45,0.00,CLR,,0.00,WeatherDisplay:10.37,2013-11-09 19:13:00,
2013-11-09 14:18:00,47.3,27.0,30.07,SSW,208,2.5,3.5,45,0.00,CLR,,0.00,WeatherDisplay:10.37,2013-11-09 19:18:00,
2013-11-09 14:23:00,47.3,27.5,30.07,SW,228,0.7,7.0,46,0.00,CLR,,0.00,WeatherDisplay:10.37,2013-11-09 19:23:00,
2013-11-09 14:28:00,47.6,27.3,30.07,West,264,0.4,3.5,45,0.00,CLR,,0.00,WeatherDisplay:10.37,2013-11-09 19:28:00,
2013-11-09 14:33:00,47.7,26.8,30.06,WNW,292,0.9,2.3,44,0.00,CLR,,0.00,WeatherDisplay:10.37,2013-11-09 19:33:00,
2013-11-09 14:38:00,47.4,26.6,30.06,WNW,299,1.9,4.0,44,0.00,CLR,,0.00,WeatherDisplay:10.37,2013-11-09 19:38:00,
2013-11-09 14:43:00,47.0,25.6,30.06,West,279,0.2,2.3,43,0.00,CLR,,0.00,WeatherDisplay:10.37,2013-11-09 19:43:00,
2013-11-09 14:48:00,46.8,26.6,30.06,NNW,339,1.2,2.3,45,0.00,CLR,,0.00,WeatherDisplay:10.37,2013-11-09 19:48:00,
2013-11-09 14:53:00,46.8,26.0,30.05,WNW,288,1.7,6.0,44,0.00,CLR,,0.00,WeatherDisplay:10.37,2013-11-09 19:53:00,
2013-11-09 14:58:00,46.7,25.9,30.05,WNW,292,1.1,3.5,44,0.00,CLR,,0.00,WeatherDisplay:10.37,2013-11-09 19:58:00,
2013-11-09 15:03:00,46.7,25.4,30.05,WSW,246,0.7,3.5,43,0.00,CLR,,0.00,WeatherDisplay:10.37,2013-11-09 20:03:00,
2013-11-09 15:08:00,46.5,25.7,30.05,WNW,300,2.4,3.5,44,0.00,CLR,,0.00,WeatherDisplay:10.37,2013-11-09 20:08:00,
2013-11-09 15:13:00,46.5,26.3,30.05,West,270,2.5,5.0,45,0.00,CLR,,0.00,WeatherDisplay:10.37,2013-11-09 20:13:00,
2013-11-09 15:18:00,46.5,25.7,30.05,WNW,285,4.9,6.0,44,0.00,CLR,,0.00,WeatherDisplay:10.37,2013-11-09 20:18:00,
2013-11-09 15:23:00,46.4,26.2,30.05,WNW,298,0.8,3.5,45,0.00,CLR,,0.00,WeatherDisplay:10.37,2013-11-09 20:23:00,
2013-11-09 15:28:00,46.4,26.7,30.05,WNW,298,1.3,2.3,46,0.00,CLR,,0.00,WeatherDisplay:10.37,2013-11-09 20:28:00,
2013-11-09 15:33:00,46.4,26.7,30.05,NW,305,0.3,2.3,46,0.00,CLR,,0.00,WeatherDisplay:10.37,2013-11-09 20:33:00,
2013-11-09 15:38:00,46.2,27.1,30.05,WNW,289,1.8,3.5,47,0.00,CLR,,0.00,WeatherDisplay:10.37,2013-11-09 20:38:00,
2013-11-09 15:43:00,46.2,26.0,30.04,WNW,289,0.0,1.1,45,0.00,CLR,,0.00,WeatherDisplay:10.37,2013-11-09 20:43:00,
2013-11-09 15:48:00,46.2,27.1,30.04,WNW,289,0.0,0.0,47,0.00,CLR,,0.00,WeatherDisplay:10.37,2013-11-09 20:48:00,
2013-11-09 15:53:00,46.2,27.1,30.04,WNW,289,0.0,0.0,47,0.00,CLR,,0.00,WeatherDisplay:10.37,2013-11-09 20:53:00,
2013-11-09 15:58:00,46.1,27.5,30.05,WNW,289,0.0,1.0,48,0.00,CLR,,0.00,WeatherDisplay:10.37,2013-11-09 20:58:00,
2013-11-09 16:03:00,46.0,26.9,30.04,West,260,1.8,4.0,47,0.00,CLR,,0.00,WeatherDisplay:10.37,2013-11-09 21:03:00,
2013-11-09 16:08:00,45.7,26.6,30.04,South,191,1.0,3.0,47,0.00,CLR,,0.00,WeatherDisplay:10.37,2013-11-09 21:08:00,
2013-11-09 16:13:00,45.4,26.8,30.04,SW,215,0.2,1.1,48,0.00,CLR,,0.00,WeatherDisplay:10.37,2013-11-09 21:13:00,
2013-11-09 16:18:00,45.1,27.1,30.04,SW,221,0.2,2.3,49,0.00,CLR,,0.00,WeatherDisplay:10.37,2013-11-09 21:18:00,
2013-11-09 16:23:00,44.8,26.3,30.04,SE,142,0.5,3.5,48,0.00,CLR,,0.00,WeatherDisplay:10.37,2013-11-09 21:23:00,
2013-11-09 16:28:00,44.6,27.1,30.04,SSE,159,0.6,4.0,50,0.00,CLR,,0.00,WeatherDisplay:10.37,2013-11-09 21:28:00,
2013-11-09 16:33:00,44.5,27.5,30.04,SE,132,0.5,2.3,51,0.00,CLR,,0.00,WeatherDisplay:10.37,2013-11-09 21:33:00,
2013-11-09 16:38:00,44.2,27.7,30.04,SSE,165,0.8,3.0,52,0.00,CLR,,0.00,WeatherDisplay:10.37,2013-11-09 21:38:00,
2013-11-09 16:43:00,44.1,27.6,30.04,SW,214,0.7,2.3,52,0.00,CLR,,0.00,WeatherDisplay:10.37,2013-11-09 21:43:00,
2013-11-09 16:48:00,43.9,27.9,30.04,SSE,163,2.2,7.0,53,0.00,CLR,,0.00,WeatherDisplay:10.37,2013-11-09 21:48:00,
2013-11-09 16:53:00,43.6,27.6,30.04,South,173,0.9,2.3,53,0.00,CLR,,0.00,WeatherDisplay:10.37,2013-11-09 21:53:00,
2013-11-09 16:58:00,43.5,27.9,30.04,South,176,1.8,2.3,54,0.00,CLR,,0.00,WeatherDisplay:10.37,2013-11-09 21:58:00,
2013-11-09 17:03:00,43.3,27.8,30.03,South,183,0.7,3.5,54,0.00,CLR,,0.00,WeatherDisplay:10.37,2013-11-09 22:03:00,
2013-11-09 17:08:00,43.2,28.1,30.03,SSE,168,0.5,2.3,55,0.00,CLR,,0.00,WeatherDisplay:10.37,2013-11-09 22:08:00,
2013-11-09 17:13:00,42.9,27.8,30.03,SSE,165,2.3,3.5,55,0.00,CLR,,0.00,WeatherDisplay:10.37,2013-11-09 22:13:00,
2013-11-09 17:18:00,42.8,27.7,30.03,SSE,167,0.8,4.6,55,0.00,CLR,,0.00,WeatherDisplay:10.37,2013-11-09 22:18:00,
2013-11-09 17:23:00,42.8,27.7,30.03,South,186,0.5,3.5,55,0.00,CLR,,0.00,WeatherDisplay:10.37,2013-11-09 22:23:00,
2013-11-09 17:28:00,42.9,27.4,30.03,SSE,159,1.1,1.1,54,0.00,CLR,,0.00,WeatherDisplay:10.37,2013-11-09 22:28:00,
2013-11-09 17:33:00,42.9,28.3,30.03,SSE,159,0.0,0.0,56,0.00,CLR,,0.00,WeatherDisplay:10.37,2013-11-09 22:33:00,
2013-11-09 17:38:00,42.9,28.3,30.03,SSE,159,0.0,0.0,56,0.00,CLR,,0.00,WeatherDisplay:10.37,2013-11-09 22:38:00,
2013-11-09 17:43:00,42.8,28.2,30.03,SSE,159,0.0,0.0,56,0.00,CLR,,0.00,WeatherDisplay:10.37,2013-11-09 22:43:00,
2013-11-09 17:48:00,42.6,28.0,30.04,SSE,159,0.0,0.0,56,0.00,CLR,,0.00,WeatherDisplay:10.37,2013-11-09 22:48:00,
2013-11-09 17:53:00,42.6,28.0,30.04,SSE,159,0.0,0.0,56,0.00,CLR,,0.00,WeatherDisplay:10.37,2013-11-09 22:53:00,
2013-11-09 17:58:00,42.5,27.9,30.04,SSE,159,0.0,0.0,56,0.00,CLR,,0.00,WeatherDisplay:10.37,2013-11-09 22:58:00,
2013-11-09 18:03:00,42.3,27.7,30.04,SSE,159,0.0,0.0,56,0.00,CLR,,0.00,WeatherDisplay:10.37,2013-11-09 23:03:00,
2013-11-09 18:08:00,42.3,28.1,30.04,SSE,159,0.0,0.0,57,0.00,CLR,,0.00,WeatherDisplay:10.37,2013-11-09 23:08:00,
2013-11-09 18:13:00,42.2,27.6,30.04,SSE,159,0.0,0.0,56,0.00,CLR,,0.00,WeatherDisplay:10.37,2013-11-09 23:13:00,
2013-11-09 18:18:00,42.1,28.4,30.04,SSE,159,0.0,0.0,58,0.00,CLR,,0.00,WeatherDisplay:10.37,2013-11-09 23:18:00,
2013-11-09 18:23:00,42.1,27.9,30.04,SSE,159,0.3,1.1,57,0.00,CLR,,0.00,WeatherDisplay:10.37,2013-11-09 23:23:00,
2013-11-09 18:28:00,42.1,27.9,30.03,SSE,159,0.0,0.0,57,0.00,CLR,,0.00,WeatherDisplay:10.37,2013-11-09 23:28:00,
2013-11-09 18:33:00,42.1,27.9,30.04,SSE,159,0.3,1.0,57,0.00,CLR,,0.00,WeatherDisplay:10.37,2013-11-09 23:33:00,
2013-11-09 18:38:00,41.9,28.6,30.04,SSE,159,0.0,0.0,59,0.00,CLR,,0.00,WeatherDisplay:10.37,2013-11-09 23:38:00,
2013-11-09 18:43:00,41.6,29.5,30.04,SSE,159,0.0,0.0,62,0.00,CLR,,0.00,WeatherDisplay:10.37,2013-11-09 23:43:00,
2013-11-09 18:48:00,41.3,29.3,30.03,SSE,159,0.0,0.0,62,0.00,CLR,,0.00,WeatherDisplay:10.37,2013-11-09 23:48:00,
2013-11-09 18:53:00,41.1,29.1,30.03,SSE,159,0.0,0.0,62,0.00,CLR,,0.00,WeatherDisplay:10.37,2013-11-09 23:53:00,
2013-11-09 18:58:00,40.9,29.3,30.03,SSE,159,0.0,0.0,63,0.00,CLR,,0.00,WeatherDisplay:10.37,2013-11-09 23:58:00,
2013-11-09 19:03:00,40.8,29.2,30.04,SSE,159,0.0,0.0,63,0.00,CLR,,0.00,WeatherDisplay:10.37,2013-11-10 00:03:00,
2013-11-09 19:08:00,40.6,28.6,30.04,SSE,159,0.0,1.1,62,0.00,CLR,,0.00,WeatherDisplay:10.37,2013-11-10 00:08:00,
2013-11-09 19:13:00,40.5,28.5,30.03,SSE,159,0.0,0.0,62,0.00,CLR,,0.00,WeatherDisplay:10.37,2013-11-10 00:13:00,
2013-11-09 19:18:00,40.2,28.6,30.03,SSE,159,0.0,0.0,63,0.00,CLR,,0.00,WeatherDisplay:10.37,2013-11-10 00:18:00,
2013-11-09 19:23:00,40.1,28.5,30.03,SSE,159,0.0,0.0,63,0.00,CLR,,0.00,WeatherDisplay:10.37,2013-11-10 00:23:00,
2013-11-09 19:28:00,39.9,28.7,30.04,SSE,159,0.0,0.0,64,0.00,CLR,,0.00,WeatherDisplay:10.37,2013-11-10 00:28:00,
2013-11-09 19:33:00,39.6,28.4,30.03,SSE,159,0.0,0.0,64,0.00,CLR,,0.00,WeatherDisplay:10.37,2013-11-10 00:33:00,
2013-11-09 19:38:00,39.2,28.8,30.03,SSE,159,1.5,3.5,66,0.00,CLR,,0.00,WeatherDisplay:10.37,2013-11-10 00:38:00,
2013-11-09 19:43:00,38.8,28.8,30.03,SSE,159,0.1,0.0,67,0.00,CLR,,0.00,WeatherDisplay:10.37,2013-11-10 00:43:00,
2013-11-09 19:48:00,38.6,29.7,30.03,SSE,159,0.0,0.0,70,0.00,CLR,,0.00,WeatherDisplay:10.37,2013-11-10 00:48:00,
2013-11-09 19:53:00,38.5,29.6,30.02,SSE,159,0.0,0.0,70,0.00,CLR,,0.00,WeatherDisplay:10.37,2013-11-10 00:53:00,
2013-11-09 19:58:00,38.3,29.7,30.02,SSE,159,0.0,0.0,71,0.00,CLR,,0.00,WeatherDisplay:10.37,2013-11-10 00:58:00,
2013-11-09 20:03:00,38.0,29.4,30.02,SSE,159,0.0,0.0,71,0.00,CLR,,0.00,WeatherDisplay:10.37,2013-11-10 01:03:00,
2013-11-09 20:08:00,38.0,29.8,30.02,SSE,159,0.0,0.0,72,0.00,CLR,,0.00,WeatherDisplay:10.37,2013-11-10 01:08:00,
2013-11-09 20:13:00,37.9,29.7,30.02,SSE,159,0.0,1.1,72,0.00,CLR,,0.00,WeatherDisplay:10.37,2013-11-10 01:13:00,
2013-11-09 20:18:00,37.6,31.0,30.03,SSE,159,0.0,0.0,77,0.00,CLR,,0.00,WeatherDisplay:10.37,2013-11-10 01:18:00,
2013-11-09 20:23:00,37.5,31.3,30.02,SSE,159,0.0,0.0,78,0.00,CLR,,0.00,WeatherDisplay:10.37,2013-11-10 01:23:00,
2013-11-09 20:28:00,37.3,30.1,30.02,SSE,159,0.0,0.0,75,0.00,CLR,,0.00,WeatherDisplay:10.37,2013-11-10 01:28:00,
2013-11-09 20:33:00,37.2,30.3,30.03,West,259,0.5,1.1,76,0.00,CLR,,0.00,WeatherDisplay:10.37,2013-11-10 01:33:00,
2013-11-09 20:38:00,37.2,31.6,30.02,West,259,0.0,1.1,80,0.00,CLR,,0.00,WeatherDisplay:10.37,2013-11-10 01:38:00,
2013-11-09 20:43:00,37.2,31.0,30.02,West,259,0.0,0.0,78,0.00,CLR,,0.00,WeatherDisplay:10.37,2013-11-10 01:43:00,
2013-11-09 20:48:00,36.9,30.4,30.01,West,259,0.0,0.0,77,0.00,CLR,,0.00,WeatherDisplay:10.37,2013-11-10 01:48:00,
2013-11-09 20:53:00,36.9,29.7,30.01,West,259,0.0,0.0,75,0.00,CLR,,0.00,WeatherDisplay:10.37,2013-11-10 01:53:00,
2013-11-09 20:58:00,37.2,30.0,30.01,West,279,0.7,3.5,75,0.00,CLR,,0.00,WeatherDisplay:10.37,2013-11-10 01:58:00,
2013-11-09 21:03:00,37.3,31.7,30.01,West,279,0.0,0.0,80,0.00,CLR,,0.00,WeatherDisplay:10.37,2013-11-10 02:03:00,
2013-11-09 21:08:00,37.5,31.9,30.01,West,279,0.0,0.0,80,0.00,CLR,,0.00,WeatherDisplay:10.37,2013-11-10 02:08:00,
2013-11-09 21:13:00,37.5,31.6,30.01,West,279,0.0,0.0,79,0.00,CLR,,0.00,WeatherDisplay:10.37,2013-11-10 02:13:00,
2013-11-09 21:18:00,37.5,31.6,30.01,West,279,0.0,0.0,79,0.00,CLR,,0.00,WeatherDisplay:10.37,2013-11-10 02:18:00,
2013-11-09 21:23:00,37.5,31.6,30.01,West,279,0.0,0.0,79,0.00,CLR,,0.00,WeatherDisplay:10.37,2013-11-10 02:23:00,
2013-11-09 21:28:00,37.5,31.6,30.01,West,279,0.0,0.0,79,0.00,CLR,,0.00,WeatherDisplay:10.37,2013-11-10 02:28:00,
2013-11-09 21:33:00,37.5,31.6,30.00,West,279,0.0,0.0,79,0.00,CLR,,0.00,WeatherDisplay:10.37,2013-11-10 02:33:00,
2013-11-09 21:38:00,37.6,31.7,30.01,West,279,0.0,0.0,79,0.00,CLR,,0.00,WeatherDisplay:10.37,2013-11-10 02:38:00,
2013-11-09 21:43:00,37.6,31.4,30.01,West,279,0.0,0.0,78,0.00,CLR,,0.00,WeatherDisplay:10.37,2013-11-10 02:43:00,
2013-11-09 21:48:00,37.6,32.0,30.01,West,279,0.0,1.1,80,0.00,CLR,,0.00,WeatherDisplay:10.37,2013-11-10 02:48:00,
2013-11-09 21:53:00,37.6,32.0,30.00,West,279,0.0,0.0,80,0.00,CLR,,0.00,WeatherDisplay:10.37,2013-11-10 02:53:00,
2013-11-09 21:58:00,37.8,31.6,30.00,West,279,0.0,0.0,78,0.00,CLR,,0.00,WeatherDisplay:10.37,2013-11-10 02:58:00,
2013-11-09 22:03:00,37.9,30.7,29.99,West,279,0.0,0.0,75,0.00,CLR,,0.00,WeatherDisplay:10.37,2013-11-10 03:03:00,
2013-11-09 22:08:00,38.0,30.8,29.99,West,279,0.0,0.0,75,0.00,CLR,,0.00,WeatherDisplay:10.37,2013-11-10 03:08:00,
2013-11-09 22:13:00,38.3,31.7,29.99,West,279,0.0,0.0,77,0.00,CLR,,0.00,WeatherDisplay:10.37,2013-11-10 03:13:00,
2013-11-09 22:18:00,38.3,32.0,29.98,West,279,0.0,0.0,78,0.00,CLR,,0.00,WeatherDisplay:10.37,2013-11-10 03:18:00,
2013-11-09 22:23:00,38.3,32.4,29.98,West,279,0.0,0.0,79,0.00,CLR,,0.00,WeatherDisplay:10.37,2013-11-10 03:23:00,
2013-11-09 22:28:00,38.3,31.7,29.97,West,279,0.0,0.0,77,0.00,CLR,,0.00,WeatherDisplay:10.37,2013-11-10 03:28:00,
2013-11-09 22:33:00,38.5,31.6,29.96,West,279,0.0,2.3,76,0.00,CLR,,0.00,WeatherDisplay:10.37,2013-11-10 03:33:00,
2013-11-09 22:38:00,38.6,32.0,29.96,West,279,0.5,2.3,77,0.00,CLR,,0.00,WeatherDisplay:10.37,2013-11-10 03:38:00,
2013-11-09 22:43:00,38.6,33.3,29.96,West,279,0.0,1.1,81,0.00,CLR,,0.00,WeatherDisplay:10.37,2013-11-10 03:43:00,
2013-11-09 22:48:00,38.6,32.6,29.96,West,279,0.0,0.0,79,0.00,CLR,,0.00,WeatherDisplay:10.37,2013-11-10 03:48:00,
2013-11-09 22:53:00,38.5,32.2,29.96,West,279,0.0,0.0,78,0.00,CLR,,0.00,WeatherDisplay:10.37,2013-11-10 03:53:00,
2013-11-09 22:58:00,38.5,32.6,29.96,West,279,0.0,1.1,79,0.00,CLR,,0.00,WeatherDisplay:10.37,2013-11-10 03:58:00,
2013-11-09 23:03:00,38.5,32.2,29.96,West,279,0.0,1.1,78,0.00,CLR,,0.00,WeatherDisplay:10.37,2013-11-10 04:03:00,
2013-11-09 23:08:00,38.6,32.0,29.95,West,279,0.2,0.0,77,0.00,CLR,,0.00,WeatherDisplay:10.37,2013-11-10 04:08:00,
2013-11-09 23:13:00,38.8,31.6,29.95,West,279,0.1,0.0,75,0.00,CLR,,0.00,WeatherDisplay:10.37,2013-11-10 04:13:00,
2013-11-09 23:19:00,39.1,32.2,29.95,West,279,0.0,0.0,76,0.00,CLR,,0.00,WeatherDisplay:10.37,2013-11-10 04:19:00,
2013-11-09 23:23:00,39.2,31.9,29.94,West,279,0.0,0.0,75,0.00,CLR,,0.00,WeatherDisplay:10.37,2013-11-10 04:23:00,
2013-11-09 23:29:00,39.3,31.7,29.94,West,279,0.0,0.0,74,0.00,CLR,,0.00,WeatherDisplay:10.37,2013-11-10 04:29:00,
2013-11-09 23:34:00,39.6,32.0,29.94,West,279,0.0,0.0,74,0.00,CLR,,0.00,WeatherDisplay:10.37,2013-11-10 04:34:00,
2013-11-09 23:39:00,39.6,32.7,29.94,West,279,0.0,0.0,76,0.00,CLR,,0.00,WeatherDisplay:10.37,2013-11-10 04:39:00,
2013-11-09 23:44:00,39.6,32.7,29.94,West,279,0.0,0.0,76,0.00,CLR,,0.00,WeatherDisplay:10.37,2013-11-10 04:44:00,
2013-11-09 23:49:00,39.6,32.7,29.93,West,279,0.0,0.0,76,0.00,CLR,,0.00,WeatherDisplay:10.37,2013-11-10 04:49:00,
2013-11-09 23:54:00,39.6,32.0,29.93,West,279,0.0,0.0,74,0.00,CLR,,0.00,WeatherDisplay:10.37,2013-11-10 04:54:00,
2013-11-09 23:59:00,39.6,32.3,29.93,West,279,0.0,0.0,75,0.00,CLR,,0.00,WeatherDisplay:10.37,2013-11-10 04:59:00,